Location: Newark
(12.4436°N, 0.6167°W)
Time: 02:30:29
(UTC+00:00)

Vanguard 1 Rocket - All Passes

Search period start: 08 December 2019 00:00
Search period end: 18 December 2019 00:00
Orbit: 650 x 4226 km, 34.3° (Epoch: 06 December)

Date Brightness Start Highest point End Pass type
(mag) Time Alt. Az. Time Alt. Az. Time Alt. Az.
08 Dec - 01:06:48 10° NNW 01:08:56 11° N 01:10:48 10° NNE night (unlit)
08 Dec - 03:32:46 10° NNW 03:36:42 24° NNE 03:40:20 10° E visible
08 Dec - 05:57:39 10° W 06:01:40 32° SSW 06:06:58 10° SSE daylight
08 Dec - 16:00:51 10° SSW 16:23:13 36° SE 16:41:49 10° E daylight
08 Dec - 18:30:38 10° SW 18:56:37 81° SE 19:12:02 10° ENE visible
08 Dec - 21:07:56 10° W 21:26:50 44° NNW 21:37:05 10° NE visible
08 Dec - 23:49:55 10° NW 23:56:09 16° NNW 00:00:41 10° NNE night (unlit)
09 Dec - 02:21:50 10° NNW 02:25:03 15° NNE 02:27:46 10° NE night (unlit)
09 Dec - 04:46:22 10° WNW 04:50:47 80° SW 04:55:44 10° SE visible
09 Dec - 14:49:07 10° S 15:07:01 24° SE 15:24:27 10° E daylight
09 Dec - 17:15:49 10° SW 17:41:41 61° SE 17:59:43 10° ENE visible
09 Dec - 19:49:44 10° WSW 20:13:25 64° NW 20:26:23 10° NE visible
09 Dec - 22:31:16 10° WNW 22:43:09 25° NNW 22:50:29 10° NNE visible
10 Dec - 01:09:17 10° NNW 01:12:44 13° N 01:15:34 10° NNE night (unlit)
10 Dec - 03:35:21 10° NW 03:39:59 39° NNE 03:44:08 10° E visible
10 Dec - 06:01:45 10° WSW 06:04:57 18° SSW 06:08:47 10° SSE daylight
10 Dec - 13:40:10 10° S 13:50:18 14° SSE 14:01:06 10° ESE daylight
10 Dec - 16:02:22 10° SSW 16:26:09 44° SE 16:45:56 10° ENE daylight
10 Dec - 18:32:59 10° SW 18:59:15 87° NW 19:15:04 10° NE visible
10 Dec - 21:11:50 10° W 21:29:54 38° NNW 21:40:04 10° NE visible
10 Dec - 23:53:43 10° NW 23:59:57 16° N 00:04:27 10° NNE night (unlit)
11 Dec - 02:24:04 10° NNW 02:28:36 22° NNE 02:32:11 10° ENE night (unlit)
11 Dec - 04:49:40 10° WNW 04:53:53 43° SW 04:58:29 10° SE visible
11 Dec - 14:50:19 10° SSW 15:10:16 30° SE 15:29:48 10° E daylight
11 Dec - 17:17:48 10° SW 17:44:19 72° SE 18:02:57 10° ENE visible
11 Dec - 19:52:59 10° WSW 20:16:13 55° NNW 20:29:18 10° NE visible
11 Dec - 22:35:34 10° WNW 22:46:45 23° NNW 22:53:50 10° NNE visible
12 Dec - 01:11:42 10° NNW 01:16:31 17° N 01:20:09 10° NE night (unlit)
12 Dec - 03:38:09 10° NW 03:43:11 70° NNE 03:47:33 10° ESE visible
12 Dec - 13:40:11 10° S 13:54:10 18° SE 14:09:25 10° ESE daylight
12 Dec - 16:04:06 10° SSW 16:28:50 54° SE 16:49:36 10° ENE daylight
12 Dec - 18:35:39 10° WSW 19:01:52 75° NW 19:18:01 10° NE visible
12 Dec - 21:15:59 10° W 21:33:10 33° NNW 21:43:11 10° NE visible
12 Dec - 23:57:04 10° NW 00:03:48 18° N 00:08:33 10° NE night (unlit)
13 Dec - 02:26:32 10° NW 02:32:04 32° NNE 02:36:10 10° E night (unlit)
13 Dec - 04:53:24 10° W 04:56:59 23° SW 05:00:45 10° SSE visible
13 Dec - 14:51:48 10° SSW 15:13:09 38° SE 15:34:20 10° E daylight
13 Dec - 17:20:03 10° SW 17:46:51 84° SE 18:06:01 10° ENE visible
13 Dec - 19:56:34 10° W 20:19:08 47° NNW 20:32:16 10° NE visible
13 Dec - 22:39:41 10° WNW 22:50:30 22° NNW 22:57:25 10° NE visible
14 Dec - 01:14:08 10° NW 01:20:14 22° NNE 01:24:29 10° ENE night (unlit)
14 Dec - 03:41:11 10° WNW 03:46:17 65° SW 03:50:37 10° SE visible
14 Dec - 13:41:04 10° S 13:57:30 24° SE 14:15:51 10° E daylight
14 Dec - 16:06:04 10° SW 16:31:21 64° SE 16:52:57 10° ENE daylight
14 Dec - 18:38:38 10° WSW 19:04:33 65° NNW 19:20:55 10° NE visible
14 Dec - 21:20:16 10° WNW 21:36:40 30° NNW 21:46:26 10° NE visible
15 Dec - 00:00:03 10° NW 00:07:40 21° N 00:12:46 10° NE night (unlit)
15 Dec - 02:29:09 10° NW 02:35:25 52° NNE 02:39:49 10° ESE visible
15 Dec - 04:58:04 10° WSW 05:00:05 13° SW 05:02:08 10° S visible
15 Dec - 12:33:51 10° SSE 12:41:44 13° SE 12:50:34 10° ESE daylight
15 Dec - 14:53:31 10° SSW 15:15:46 46° SE 15:38:18 10° ENE daylight
15 Dec - 17:22:34 10° SW 17:49:21 85° NW 18:08:57 10° NE visible
15 Dec - 20:00:28 10° W 20:22:18 42° NNW 20:35:18 10° NE visible
15 Dec - 22:43:28 10° NW 22:54:22 23° N 23:01:16 10° NE visible
16 Dec - 01:16:36 10° NW 01:23:52 31° NNE 01:28:33 10° E night (unlit)
16 Dec - 03:44:32 10° WNW 03:49:16 35° SW 03:53:18 10° SSE visible
16 Dec - 13:42:24 10° SSW 14:00:24 31° SE 14:21:06 10° E daylight
16 Dec - 16:08:15 10° SW 16:33:45 75° SE 16:56:04 10° ENE daylight
16 Dec - 18:41:57 10° WSW 19:07:22 56° NNW 19:23:51 10° NE visible
16 Dec - 21:24:31 10° WNW 21:40:22 29° NNW 21:49:55 10° NE visible
17 Dec - 00:02:47 10° NW 00:11:29 25° N 00:16:57 10° ENE night (unlit)
17 Dec - 02:31:58 10° NW 02:38:37 87° NNE 02:43:07 10° ESE visible
17 Dec - 12:33:25 10° S 12:45:13 18° SE 12:59:20 10° ESE daylight
17 Dec - 14:55:27 10° SSW 15:18:11 56° SE 15:41:50 10° ENE daylight
17 Dec - 17:25:23 10° WSW 17:51:55 74° NW 18:11:50 10° NE visible
17 Dec - 20:04:36 10° W 20:25:41 38° NNW 20:38:30 10° NE visible
17 Dec - 22:46:52 10° NW 22:58:17 25° N 23:05:17 10° NE visible
